GW1495 Weather Reports


time (UTC)temp
F
wind
direction
speed
knots
gust
knots
rain 1hr
in
rain 24hr
in
rain mn
in
humidity
%
barometer
mb
20260901014526 74 72 0.0 0.0 0.00 0.00 0.00 93 1013.2
20260901013923 74 72 0.0 0.0 0.00 0.00 0.00 92 1013.2
20260901013343 75 72 0.0 0.0 0.00 0.00 0.00 92 1013.2
20260901012709 75 72 0.0 0.0 0.00 0.00 0.00 91 1012.8
20260901012114 74 72 0.0 0.0 0.00 0.00 0.00 92 1012.8
20260901011528 74 72 0.0 0.0 0.00 0.00 0.00 94 1012.5
20260901010940 74 72 0.0 0.0 0.00 0.00 0.00 93 1012.5
20260901005141 76 72 0.0 0.0 0.00 0.00 0.00 90 1012.8
20260901004538 75 72 0.0 0.0 0.00 0.00 0.00 91 1012.5
20260901003923 75 72 0.0 0.0 0.00 0.00 0.00 92 1012.5
20260901003311 74 72 0.0 0.0 0.00 0.00 0.00 93 1012.5
20260901002738 74 72 0.0 0.0 0.00 0.00 0.00 93 1012.5
20260901002150 75 72 0.0 0.0 0.00 0.00 0.00 93 1012.5
20260901001508 75 72 0.0 0.0 0.00 0.00 0.00 92 1012.5
20260901000923 75 72 0.0 0.0 0.00 0.00 0.00 91 1012.5
20260901000321 76 72 0.0 0.0 0.00 0.00 0.00 89 1012.5
20260831235719 77 72 0.0 0.0 0.00 0.00 0.00 89 1012.5
20260831235146 78 72 0.0 0.0 0.00 0.00 0.00 88 1012.5
20260831233339 78 72 0.0 0.0 0.00 0.00 0.00 87 1012.5
20260831232713 78 72 0.0 0.0 0.00 0.00 0.00 87 1012.5
20260831232146 77 72 0.0 0.0 0.00 0.00 0.00 89 1012.5
20260831231544 78 72 0.0 0.0 0.00 0.00 0.00 89 1012.5
20260831230947 78 72 0.0 0.0 0.00 0.00 0.00 88 1012.5
20260831225739 79 72 0.0 0.0 0.00 0.00 0.00 87 1012.8
20260831225115 79 72 0.0 0.0 0.00 0.00 0.00 87 1012.8
20260831224536 79 72 0.0 0.0 0.00 0.00 0.00 86 1012.5
20260831223917 80 72 0.0 0.0 0.00 0.00 0.00 85 1012.5
20260831223336 80 72 0.9 0.9 0.00 0.00 0.00 84 1012.5
20260831222727 80 72 0.0 0.0 0.00 0.00 0.00 83 1012.8
20260831222122 81 72 0.0 0.0 0.00 0.00 0.00 83 1012.8
20260831220918 82 76 0.0 0.0 0.00 0.00 0.00 78 1012.8
20260831215707 82 76 0.0 0.0 0.00 0.00 0.00 78 1012.8
20260831215136 82 76 0.0 0.0 0.00 0.00 0.00 76 1012.8
20260831214533 84 76 0.0 0.0 0.00 0.00 0.00 75 1012.8
20260831213331 86 76 0.0 0.0 0.00 0.00 0.00 69 1012.8
20260831212707 87 77 0.9 0.9 0.00 0.00 0.00 67 1012.8
20260831212135 87 76 1.7 1.7 0.00 0.00 0.00 67 1012.8
20260831211535 86 76 0.0 0.0 0.00 0.00 0.00 71 1013.2
20260831210915 86 76 0.9 0.9 0.00 0.00 0.00 71 1013.2
20260831210325 87 84 0.0 0.0 0.00 0.00 0.00 69 1013.2
20260831205723 86 60 0.0 0.0 0.00 0.00 0.00 67 1013.2
20260831205140 87 60 1.7 1.7 0.00 0.00 0.00 68 1013.2
20260831204545 87 114 1.7 1.7 0.00 0.00 0.00 67 1013.2
20260831203911 89 126 1.7 1.7 0.00 0.00 0.00 67 1013.2
20260831203340 91 156 0.9 0.9 0.00 0.00 0.00 56 1013.2
20260831202743 91 126 1.7 1.7 0.00 0.00 0.00 60 1013.2
20260831202143 89 120 2.6 2.6 0.00 0.00 0.00 63 1013.2
20260831201516 88 120 1.7 1.7 0.00 0.00 0.00 66 1013.5
20260831200934 88 103 1.7 1.7 0.00 0.00 0.00 68 1013.5
20260831200326 90 126 2.6 2.6 0.00 0.00 0.00 60 1013.5
20260831195737 91 102 1.7 1.7 0.00 0.00 0.00 65 1013.5
20260831195147 93 24 1.7 1.7 0.00 0.00 0.00 59 1013.5
20260831194547 92 12 1.7 1.7 0.00 0.00 0.00 61 1013.5
20260831193915 91 12 0.9 0.9 0.00 0.00 0.00 64 1013.5
20260831193317 93 6 0.9 0.9 0.00 0.00 0.00 59 1013.5
20260831192719 91 6 0.0 0.0 0.00 0.00 0.00 56 1013.8
20260831192132 89 128 0.9 0.9 0.00 0.00 0.00 62 1013.8
20260831191542 88 126 1.7 1.7 0.00 0.00 0.00 67 1014.2
20260831190908 88 126 1.7 1.7 0.00 0.00 0.00 65 1014.2
20260831190327 87 126 1.7 1.7 0.00 0.00 0.00 69 1014.2
20260831185722 87 126 0.9 0.9 0.00 0.00 0.00 70 1014.2
20260831185149 86 126 0.0 0.0 0.00 0.00 0.00 69 1014.2
20260831184509 86 126 1.7 1.7 0.00 0.00 0.00 72 1014.2
20260831183315 84 126 1.7 1.7 0.00 0.00 0.00 77 1014.2
20260831182743 84 126 1.7 1.7 0.00 0.00 0.00 78 1014.2
20260831182120 84 126 1.7 1.7 0.00 0.00 0.00 76 1014.2
20260831181508 84 126 0.9 0.9 0.00 0.00 0.00 79 1014.5
20260831180910 83 126 0.0 0.0 0.00 0.00 0.00 76 1014.5
20260831180345 83 126 1.7 1.7 0.00 0.00 0.00 76 1014.5
20260831175718 84 126 1.7 1.7 0.00 0.00 0.00 77 1014.5
20260831175128 84 126 1.7 1.7 0.00 0.00 0.00 75 1014.5
20260831174542 84 126 1.7 1.7 0.00 0.00 0.00 74 1014.5
20260831173939 85 42 0.0 0.0 0.00 0.00 0.00 74 1014.5
20260831173329 85 42 1.7 1.7 0.00 0.00 0.00 74 1014.9
20260831172706 84 42 0.9 0.9 0.00 0.00 0.00 74 1014.9
20260831172136 85 42 1.7 1.7 0.00 0.00 0.00 74 1014.9
20260831171550 86 42 1.7 1.7 0.00 0.00 0.00 72 1014.5
20260831170347 86 42 1.7 1.7 0.00 0.00 0.00 71 1014.5
20260831165742 86 42 1.7 1.7 0.00 0.00 0.00 72 1014.9
20260831165109 84 42 1.7 1.7 0.00 0.00 0.00 73 1014.9
20260831164546 85 42 0.9 0.9 0.00 0.00 0.00 72 1014.9
20260831163913 85 42 1.7 1.7 0.00 0.00 0.00 73 1014.9
20260831162735 86 42 1.7 1.7 0.00 0.00 0.00 70 1014.9
20260831162144 88 84 1.7 1.7 0.00 0.00 0.00 65 1014.9
20260831161515 88 84 1.7 1.7 0.00 0.00 0.00 67 1014.9
20260831160937 87 84 1.7 1.7 0.00 0.00 0.00 67 1014.9
20260831160347 88 96 1.7 1.7 0.00 0.00 0.00 68 1014.9
20260831155723 87 96 0.9 0.9 0.00 0.00 0.00 72 1014.9
20260831155135 87 192 1.7 1.7 0.00 0.00 0.00 73 1014.9
20260831153308 85 300 0.0 0.0 0.00 0.00 0.00 75 1014.9
20260831152717 85 300 1.7 1.7 0.00 0.00 0.00 74 1015.2
20260831152111 84 300 0.0 0.0 0.00 0.00 0.00 76 1015.2
20260831151532 83 300 0.0 0.0 0.00 0.00 0.00 77 1014.9
20260831150926 83 300 1.7 1.7 0.00 0.00 0.00 77 1014.9
20260831150317 82 300 1.7 1.7 0.00 0.00 0.00 78 1014.9
20260831145150 81 300 1.7 1.7 0.00 0.00 0.00 80 1015.2
20260831144533 80 300 1.7 1.7 0.00 0.00 0.00 81 1015.2
20260831143922 80 300 1.7 1.7 0.00 0.00 0.00 83 1015.2
20260831143331 79 300 0.0 0.0 0.00 0.00 0.00 84 1015.2
20260831142706 78 300 0.9 0.9 0.00 0.00 0.00 85 1015.2
20260831142118 78 300 0.9 0.9 0.00 0.00 0.00 84 1015.2
20260831141536 78 300 0.0 0.0 0.00 0.00 0.00 85 1015.2
20260831140929 77 300 0.0 0.0 0.00 0.00 0.00 85 1015.2
20260831140339 76 300 0.0 0.0 0.00 0.00 0.00 87 1015.2
20260831135715 75 300 0.0 0.0 0.00 0.00 0.00 91 1015.5
20260831135125 74 300 0.0 0.0 0.00 0.00 0.00 92 1015.5
20260831134535 74 300 0.0 0.0 0.00 0.00 0.00 92 1014.9
20260831133340 73 300 1.7 1.7 0.00 0.00 0.00 94 1014.9
20260831132733 73 300 1.7 1.7 0.00 0.00 0.00 95 1015.5
20260831132121 72 300 0.0 0.0 0.00 0.00 0.00 95 1015.5
20260831131513 72 300 0.0 0.0 0.00 0.00 0.00 97 1015.5
20260831130314 72 300 0.0 0.0 0.00 0.00 0.00 97 1015.5
20260831125714 71 300 0.0 0.0 0.00 0.00 0.00 98 1015.5
20260831125135 70 300 0.0 0.0 0.00 0.00 0.00 99 1015.5
20260831123910 70 300 0.0 0.0 0.00 0.00 0.00 99 1014.9
20260831123350 70 300 0.0 0.0 0.00 0.00 0.00 99 1014.9
20260831122713 70 300 0.0 0.0 0.00 0.00 0.00 99 1014.9
20260831122148 70 300 0.0 0.0 0.00 0.00 0.00 99 1014.9
20260831121520 69 300 0.0 0.0 0.00 0.00 0.00 99 1014.9
20260831120318 69 300 0.0 0.0 0.00 0.00 0.00 99 1014.9
20260831115743 69 300 0.0 0.0 0.00 0.00 0.00 99 1014.9
20260831114546 69 300 0.0 0.0 0.00 0.00 0.00 99 1014.9
20260831113932 69 300 0.0 0.0 0.00 0.00 0.00 99 1014.9
20260831113326 69 300 0.0 0.0 0.00 0.00 0.00 99 1014.9
20260831112739 69 300 0.0 0.0 0.00 0.00 0.00 99 1014.9
20260831111510 69 300 0.0 0.0 0.00 0.00 0.00 99 1014.5
20260831110946 68 300 0.0 0.0 0.00 0.00 0.00 99 1014.5
20260831105122 68 300 0.0 0.0 0.00 0.00 0.00 99 1014.5
20260831104545 68 300 0.0 0.0 0.00 0.00 0.00 99 1014.5
20260831103922 68 300 0.0 0.0 0.00 0.00 0.00 99 1014.5
20260831102731 68 300 0.0 0.0 0.00 0.00 0.00 99 1014.5
20260831102144 68 300 1.7 1.7 0.00 0.00 0.00 99 1014.5
20260831100330 68 300 0.0 0.0 0.00 0.00 0.00 99 1014.2
20260831095726 68 300 0.0 0.0 0.00 0.00 0.00 99 1014.2
20260831095136 68 300 0.0 0.0 0.00 0.00 0.00 99 1014.2
20260831094508 68 300 0.0 0.0 0.00 0.00 0.00 99 1014.2
20260831093319 68 300 0.0 0.0 0.00 0.00 0.00 99 1014.2
20260831092744 68 300 1.7 1.7 0.00 0.00 0.00 99 1013.8
20260831091515 68 300 1.7 1.7 0.00 0.00 0.00 98 1013.8
20260831090932 68 300 1.7 1.7 0.00 0.00 0.00 98 1013.8
20260831090349 68 300 1.7 1.7 0.00 0.00 0.00 99 1013.8
20260831085745 68 300 0.9 0.9 0.00 0.00 0.00 99 1013.8
20260831085143 68 300 0.0 0.0 0.00 0.00 0.00 98 1013.8
20260831084541 68 300 0.0 0.0 0.00 0.00 0.00 98 1013.8
20260831083914 68 300 1.7 1.7 0.00 0.00 0.00 98 1013.8
20260831083350 68 300 0.0 0.0 0.00 0.00 0.00 98 1013.8
20260831082735 68 300 1.7 1.7 0.00 0.00 0.00 98 1013.5
20260831082129 68 300 0.9 0.9 0.00 0.00 0.00 98 1013.5
20260831081521 68 300 0.0 0.0 0.00 0.00 0.00 98 1013.8
20260831080934 68 300 0.0 0.0 0.00 0.00 0.00 98 1013.8
20260831080325 68 300 0.0 0.0 0.00 0.00 0.00 99 1013.8
20260831075739 68 300 2.6 2.6 0.00 0.00 0.00 99 1013.8
20260831075148 68 300 1.7 1.7 0.00 0.00 0.00 98 1013.8
20260831073946 68 300 0.0 0.0 0.00 0.00 0.00 98 1013.5
20260831073349 68 300 0.0 0.0 0.00 0.00 0.00 98 1013.5
20260831072742 68 300 0.0 0.0 0.00 0.00 0.00 98 1013.8
20260831072149 68 300 0.0 0.0 0.00 0.00 0.00 98 1013.8
20260831071523 68 300 0.0 0.0 0.00 0.00 0.00 98 1013.5
20260831070928 68 300 0.0 0.0 0.00 0.00 0.00 98 1013.5
20260831070307 68 300 0.0 0.0 0.00 0.00 0.00 98 1013.5
20260831065736 68 300 0.0 0.0 0.00 0.00 0.00 98 1013.8
20260831065141 68 300 0.0 0.0 0.00 0.00 0.00 98 1013.8
20260831064514 68 300 0.0 0.0 0.00 0.00 0.00 98 1013.8
20260831063335 68 300 0.0 0.0 0.00 0.00 0.00 98 1013.8
20260831062738 68 300 0.0 0.0 0.00 0.00 0.00 98 1013.8
20260831061510 68 300 0.0 0.0 0.00 0.00 0.00 98 1013.8
20260831060929 68 300 0.0 0.0 0.00 0.00 0.00 98 1013.8
20260831060306 68 300 0.0 0.0 0.00 0.00 0.00 98 1013.8
20260831055726 68 300 0.0 0.0 0.00 0.00 0.00 98 1013.8
20260831055110 68 300 0.0 0.0 0.00 0.00 0.00 97 1013.8
20260831054545 68 300 0.0 0.0 0.00 0.00 0.00 96 1013.8
20260831053931 69 300 0.0 0.0 0.00 0.00 0.00 96 1013.8
20260831053334 69 300 0.0 0.0 0.00 0.00 0.00 96 1013.8
20260831052718 69 300 0.0 0.0 0.00 0.00 0.00 96 1014.2
20260831052122 69 300 0.0 0.0 0.00 0.00 0.00 95 1014.2
20260831051546 69 300 0.0 0.0 0.00 0.00 0.00 95 1013.8
20260831050938 70 300 0.0 0.0 0.00 0.00 0.00 95 1013.8
20260831050333 70 300 0.0 0.0 0.00 0.00 0.00 94 1013.8
20260831045726 69 300 0.0 0.0 0.00 0.00 0.00 95 1013.8
20260831045111 70 300 0.0 0.0 0.00 0.00 0.00 95 1013.8
20260831044519 70 300 0.0 0.0 0.00 0.00 0.00 94 1013.8
20260831042732 70 300 0.0 0.0 0.00 0.00 0.00 94 1014.2
20260831042110 70 300 0.9 0.9 0.00 0.00 0.00 94 1014.2
20260831041516 70 300 0.0 0.0 0.00 0.00 0.00 93 1014.2
20260831040912 71 300 0.0 0.0 0.00 0.00 0.00 93 1014.2
20260831035738 70 300 0.0 0.0 0.00 0.00 0.00 94 1013.8
20260831035107 71 300 0.0 0.0 0.00 0.00 0.00 93 1013.8
20260831034519 71 300 0.0 0.0 0.00 0.00 0.00 93 1013.8
20260831033929 71 300 0.0 0.0 0.00 0.00 0.00 93 1013.8
20260831033344 71 300 0.0 0.0 0.00 0.00 0.00 93 1013.8
20260831032730 71 300 0.0 0.0 0.00 0.00 0.00 93 1014.2
20260831032131 72 300 0.0 0.0 0.00 0.00 0.00 93 1014.2
20260831031519 72 300 0.0 0.0 0.00 0.00 0.00 92 1014.2
20260831030941 72 300 0.0 0.0 0.00 0.00 0.00 92 1014.2
20260831030318 72 300 0.0 0.0 0.00 0.00 0.00 92 1014.2
20260831025140 72 300 0.0 0.0 0.00 0.00 0.00 93 1014.2
20260831024541 72 300 0.0 0.0 0.00 0.00 0.00 92 1014.2
20260831023934 73 300 0.0 0.0 0.00 0.00 0.00 92 1014.2
20260831023310 72 300 0.0 0.0 0.00 0.00 0.00 92 1014.2
20260831022713 72 300 0.0 0.0 0.00 0.00 0.00 93 1013.8
20260831021538 72 300 0.0 0.0 0.00 0.00 0.00 93 1013.8
20260831020925 73 300 0.0 0.0 0.00 0.00 0.00 93 1013.8
20260831020343 73 300 0.0 0.0 0.00 0.00 0.00 93 1013.8
20260831015731 73 300 0.0 0.0 0.00 0.00 0.00 92 1013.8
20260831015108 74 300 0.0 0.0 0.00 0.00 0.00 92 1013.8